Weather observations for the past three days for
Greenville / Majors
Imperial (Metric)
Date Time (cdt) Wind (mph) Vis. (mi.) Weather Sky Cond. Temperature (ºF) Relative Humidity Wind Chill (°F) Heat Index (°F) Pressure Precipitation (in)
Air Dwpt 6 hour altimeter (in) sea level (mb) 1 hr 3 hr 6 hr
Max. Min.
25 07:55 NE 6 10.00 Partly Cloudy SCT011 74.3 73.8 98% 30.14 0.0
25 07:35 NE 3 7.00 Fair CLR 73.4 0 0% 30.14 0.0
25 07:15 Calm 7.00 Fair with Haze CLR 71.6 0 0% 30.13 0.0
25 06:55 Calm 7.00 Fair CLR 71.6 0 74.7 70.9 0% 30.13 0.0
25 06:35 Calm 7.00 Fair CLR 71.6 0 0% 30.12 0.0
25 06:15 Calm 7.00 Fair with Haze CLR 71.6 0 0% 30.12 0.0
25 05:55 Calm 5.00 Fair with Haze CLR 71.6 0 0% 30.12 0.0
25 05:35 Calm 7.00 Fair with Haze CLR 71.6 0 0% 30.11 0.0
25 05:15 Calm 7.00 Fair with Haze CLR 71.6 0 0% 30.11 0.0
25 04:55 Calm 7.00 Partly Cloudy SCT022 71.6 0 0% 30.11 0.0
25 04:35 NE 3 10.00 Partly Cloudy SCT022 71.6 0 0% 30.12 0.0
25 04:15 NE 5 10.00 Partly Cloudy SCT022 71.6 0 0% 30.12 0.0
25 03:55 Calm 10.00 Fair CLR 73.4 0 0% 30.12 0.0
25 03:35 Calm 10.00 Fair CLR 72.7 72.7 100% 30.11 0.0
25 03:15 Calm 10.00 Fair CLR 72.9 72.9 100% 30.12 0.0
25 02:55 Calm 10.00 Fair CLR 73.6 73.2 99% 30.12 0.0
25 02:35 Calm 10.00 Fair CLR 73.8 73.6 99% 30.12 0.0
25 02:15 Calm 10.00 Fair CLR 73.8 73.4 99% 30.12 0.0
25 01:55 E 3 10.00 Fair CLR 73.2 73 99% 30.12 0.0
25 01:35 Calm 10.00 Partly Cloudy SCT017 73.9 73.4 98% 30.12 0.0
25 01:15 NE 3 10.00 Partly Cloudy SCT017 74.5 73.9 98% 30.13 0.0
25 00:55 Calm 10.00 Fair CLR 74.5 73.9 86.9 73.9 98% 30.12 0.0
25 00:35 Calm 10.00 Fair CLR 75 73.9 96% 73 30.11 0.0
25 00:15 Calm 10.00 Fair CLR 75 73.9 96% 73 30.12 0.0
24 23:55 Calm 10.00 Fair CLR 75.2 73.9 96% 73 30.12 0.0
24 23:35 NE 3 10.00 Fair CLR 75.2 73.8 95% 74 30.11 0.0
24 23:15 Calm 10.00 Fair CLR 74.1 73.2 97% 30.11 0.0
24 22:55 SE 3 10.00 Partly Cloudy SCT065 75.4 73.4 94% 74 30.11 0.0
24 22:35 Calm 10.00 Partly Cloudy SCT075 77.2 73.8 89% 79 30.12 0.0
24 22:15 E 3 10.00 Partly Cloudy SCT075 77 73.6 89% 78 30.12 0.0
24 21:55 SE 3 10.00 Fair CLR 76.6 73.8 91% 77 30.11 0.0
24 21:35 SE 3 10.00 Fair CLR 77.4 73.8 89% 79 30.11 0.0
24 20:55 SE 6 10.00 Fair CLR 78.6 74.1 86% 82 30.1 0.0
24 20:35 SE 6 10.00 Fair CLR 79.2 74.3 85% 83 30.1 0.0
24 20:15 SE 6 5.00 Fair with Haze CLR 80.6 74.5 82% 86 30.09 0.0
24 19:55 SE 6 10.00 Fair CLR 82.8 74.1 75% 89 30.09 0.0
24 19:35 SE 8 10.00 Fair CLR 83.8 73.9 72% 91 30.08 0.0
24 19:15 SE 7 10.00 Partly Cloudy SCT045 SCT060 85.1 74.1 70% 93 30.08 0.0
24 18:55 SE 9 10.00 Mostly Cloudy SCT046 BKN060 BKN075 87.3 72.7 90.5 84.2 62% 94 30.07 0.0
24 18:35 SE 9 10.00 Partly Cloudy SCT044 SCT060 SCT075 88.3 72.1 59% 95 30.07 0.0
24 18:15 E 5 10.00 Partly Cloudy SCT043 SCT055 87.3 71.6 60% 93 30.07 0.0
24 17:55 E 7 10.00 Partly Cloudy SCT043 89.2 70.7 54% 95 30.07 0.0
24 17:35 E 7 10.00 Fair CLR 89.6 67.3 48% 93 30.07 0.0
24 17:15 E 6 10.00 Fair CLR 89.4 68.7 51% 94 30.07 0.0
24 16:55 E 7 10.00 Fair CLR 89.6 68.2 49% 94 30.08 0.0
24 16:35 E 10 10.00 Fair CLR 89.6 69.6 52% 95 30.08 0.0
24 16:15 E 5 10.00 Fair CLR 89.4 68.4 50% 93 30.08 0.0
24 15:55 SE 6 10.00 Partly Cloudy SCT041 89.1 69.3 52% 94 30.09 0.0
24 15:35 E 8 10.00 Partly Cloudy SCT041 88.2 70 55% 93 30.09 0.0
24 15:15 E 8 10.00 Fair CLR 88 69.4 54% 93 30.09 0.0
24 14:55 NE 6 10.00 Fair CLR 87.6 68.9 54% 92 30.1 0.0
24 14:35 E 9 10.00 Partly Cloudy SCT060 88 69.6 55% 93 30.11 0.0
24 14:15 E 7 10.00 Partly Cloudy SCT038 SCT060 86.9 69.4 56% 91 30.12 0.0
24 13:55 NE 3 10.00 Mostly Cloudy SCT038 BKN060 86.5 70.5 59% 92 30.12 0.0
24 13:35 E 7 10.00 Overcast OVC060 85.5 71.1 62% 91 30.13 0.0
24 13:15 E 7 10.00 Overcast SCT032 OVC060 85.1 70.3 61% 90 30.13 0.0
24 12:55 E 3 10.00 Mostly Cloudy SCT032 SCT047 BKN050 84.2 70.5 84.9 70.5 64% 89 30.14 0.0
24 12:35 N 7 10.00 Mostly Cloudy SCT028 SCT036 BKN050 83.7 71.1 66% 89 30.14 0.0
24 12:15 NE 7 10.00 Mostly Cloudy SCT026 BKN050 82.9 70.7 67% 87 30.15 0.0
24 11:55 E 6 10.00 Mostly Cloudy SCT026 BKN048 82.8 71.4 69% 88 30.15 0.0
24 11:35 Calm 10.00 Partly Cloudy SCT046 81.3 71.2 72% 85 30.15 0.0
24 11:15 NE 6 10.00 Mostly Cloudy SCT018 BKN042 81.5 72.1 73% 86 30.15 0.0
24 10:55 NE 3 10.00 Overcast SCT016 SCT021 OVC042 79.7 71.8 77% 83 30.15 0.0
24 10:35 NE 5 10.00 Overcast SCT013 BKN021 OVC042 78.8 72.7 82% 82 30.16 0.0
24 10:15 NE 6 10.00 Overcast BKN013 BKN018 OVC042 78.3 73 84% 81 30.16 0.0
24 09:55 N 3 10.00 Overcast SCT011 SCT016 OVC040 77.4 73 87% 79 30.15 0.0
24 09:35 N 3 10.00 Overcast SCT009 OVC036 76.6 73.8 91% 77 30.15 0.0
24 09:15 Calm 10.00 Overcast SCT009 SCT013 OVC032 75.6 73.8 94% 75 30.15 0.0
24 08:55 Calm 10.00 Overcast BKN013 OVC030 74.3 73.6 98% 30.15 0.0
24 08:35 Calm 7.00 Overcast BKN015 OVC027 73.6 73.2 99% 30.15 0.0
24 08:15 Calm 10.00 Overcast SCT003 SCT008 OVC027 73.4 0 0% 30.14 0.0
24 07:55 Calm 10.00 Overcast SCT008 OVC015 71.6 0 0% 30.14 0.0
24 07:35 NE 3 7.00 Overcast BKN017 OVC025 71.6 0 0% 30.13 0.0
24 07:15 N 3 7.00 Overcast OVC025 71.6 0 0% 30.13 0.0
24 06:55 Calm 10.00 Overcast OVC023 69.8 0 70.9 68.9 0% 30.12 0.0
24 06:35 Calm 10.00 Mostly Cloudy BKN027 69.8 0 0% 30.12 0.0
24 06:15 Calm 7.00 Overcast OVC027 69.8 0 0% 30.12 0.0
24 05:55 Calm 10.00 Overcast OVC025 69.8 0 0% 30.12 0.0
24 05:35 Calm 10.00 Overcast OVC022 69.8 0 0% 30.11 0.0
24 05:15 Calm 5.00 Fog/Mist SCT022 69.8 0 0% 30.11 0.0
24 04:55 Calm 7.00 Partly Cloudy SCT009 SCT020 69.8 0 0% 30.11 0.0
24 04:35 Calm 4.00 Mostly Cloudy with Haze SCT009 BKN023 69.8 0 0% 30.11 0.0
24 04:15 Calm 3.00 Fog/Mist SCT007 SCT016 SCT025 69.8 0 0% 30.11 0.0
24 03:55 Calm 7.00 Mostly Cloudy BKN005 69.8 0 0% 30.11 0.0
24 03:35 Calm 7.00 Partly Cloudy SCT005 SCT010 69.8 0 0% 30.11 0.0
24 03:15 Calm 10.00 Partly Cloudy SCT007 SCT013 69.8 0 0% 30.11 0.0
24 02:55 Calm 7.00 Mostly Cloudy BKN007 BKN013 BKN090 69.8 0 0% 30.11 0.0
24 02:35 Calm 7.00 Mostly Cloudy BKN090 69.8 0 0% 30.1 0.0
24 02:15 Calm 10.00 Partly Cloudy SCT090 69.8 0 0% 30.1 0.0
24 01:55 Calm 10.00 Partly Cloudy SCT090 69.8 0 0% 30.1 0.0
24 01:35 Calm 10.00 Fair CLR 69.8 0 0% 30.1 0.0
24 01:15 Calm 10.00 Fair CLR 69.8 0 0% 30.1 0.0
24 00:55 Calm 10.00 Fair CLR 71.6 0 81.7 70 0% 30.1 0.0
24 00:35 Calm 10.00 Fair CLR 69.8 0 0% 30.11 0.0
24 00:15 SE 5 10.00 Fair CLR 69.8 0 0% 30.11 0.0
23 23:55 E 3 10.00 Fair CLR 69.8 0 0% 30.11 0.0
23 23:35 Calm 10.00 Fair CLR 71.6 0 0% 30.1 0.0
23 23:15 Calm 10.00 Fair CLR 71.6 71.6 100% 30.1 0.0
23 22:55 Calm 10.00 Fair CLR 72.3 71.8 98% 30.09 0.0
23 22:35 Calm 10.00 Fair CLR 72.7 72.1 98% 30.08 0.0
23 22:15 Calm 10.00 Fair CLR 73 72.3 98% 30.07 0.0
23 21:55 Calm 10.00 Fair CLR 73.6 72.5 96% 30.07 0.0
23 21:35 S 5 10.00 Mostly Cloudy BKN021 74.3 72.9 95% 30.07 0.0
23 21:15 SE 5 10.00 Overcast OVC023 74.5 73 95% 30.06 0.0
23 20:55 S 7 10.00 Overcast SCT017 OVC023 76.3 73.2 90% 77 30.05 0.0
23 20:35 SE 8 10.00 Partly Cloudy SCT015 SCT023 76.6 73.8 91% 77 30.05 0.0
23 20:15 S 8 10.00 Fair CLR 77.7 73.9 88% 80 30.05 0.0
23 19:55 S 9 10.00 Partly Cloudy SCT024 79 73.8 84% 82 30.04 0.0
23 19:35 S 9 10.00 Partly Cloudy SCT024 80.4 73.6 80% 85 30.04 0.0
23 19:15 S 7 10.00 Fair CLR 81.3 73.6 77% 87 30.04 0.0
23 18:55 S 7 10.00 Fair CLR 81.5 73 83.7 76.5 76% 87 30.03 0.0
23 18:35 S 8 10.00 Partly Cloudy SCT023 SCT100 81.9 73.4 76% 87 30.03 0.0
23 18:15 S 8 10.00 Partly Cloudy SCT023 SCT100 82.2 73 74% 88 30.04 0.0
23 17:55 SE 6 10.00 Fair CLR 82.4 72.3 72% 88 30.04 0.0
23 17:35 S 8 10.00 Partly Cloudy SCT022 82.2 72.1 72% 87 30.05 0.0
23 17:15 S 8 10.00 Fair CLR 82.2 71.8 71% 87 30.05 0.0
23 16:55 SE 8 10.00 Fair CLR 81.5 72.1 73% 86 30.05 0.0
23 16:35 SE 9 10.00 Fair CLR 81.7 73 75% 87 30.05 0.0
23 16:15 SE 6 10.00 Partly Cloudy SCT023 82.2 72.5 73% 87 30.04 0.0
23 15:55 S 8 10.00 Mostly Cloudy BKN021 82.8 72.3 71% 88 30.05 0.0
23 15:35 S 8 10.00 Partly Cloudy SCT019 81.9 72.7 74% 87 30.05 0.0
23 15:15 SE 8 10.00 Partly Cloudy SCT019 81.7 73 75% 87 30.06 0.0
23 14:55 S 9 10.00 Partly Cloudy SCT019 SCT025 81.1 73 76% 86 30.07 0.0
23 14:35 SE 9 10.00 Mostly Cloudy BKN021 BKN028 BKN120 81.5 72.9 75% 87 30.07 0.0
23 14:15 SE 12 10.00 Mostly Cloudy BKN019 BKN028 BKN120 81 73.4 78% 86 30.07 0.0
23 13:55 SE 7 10.00 Mostly Cloudy SCT017 BKN023 BKN030 81.3 73.4 77% 87 30.07 0.0
23 13:35 S 12 10.00 Overcast SCT015 BKN023 OVC100 80.1 73.6 81% 84 30.07 0.0
23 13:15 SE 8 7.00 Overcast SCT015 BKN050 OVC100 78.3 76.6 95% 81 30.08 0.0
23 12:55 SE 8 7.00 Overcast SCT013 BKN024 OVC049 76.5 75 80.4 72.1 95% 77 30.08 0.0
23 12:35 SE 10 10.00 Overcast BKN013 BKN022 OVC028 77 73.9 90% 78 30.09 0.0
23 12:15 S 10 10.00 Overcast BKN015 BKN019 OVC075 78.8 73.6 84% 82 30.09 0.0
23 11:55 S 8 10.00 Overcast SCT015 BKN020 OVC075 79.3 73.4 82% 83 30.09 0.0
23 11:35 S 6 10.00 Overcast BKN015 BKN050 OVC075 79.5 73.4 82% 83 30.09 0.0
23 11:15 S 5 10.00 Overcast SCT013 BKN019 OVC065 78.3 73.2 85% 81 30.08 0.0
23 10:55 S 6 10.00 Overcast SCT011 BKN017 OVC065 77 73.2 88% 78 30.08 0.0
23 10:35 SE 5 10.00 Overcast SCT009 BKN017 OVC050 76.8 73.8 90% 78 30.08 0.0
23 10:15 S 5 10.00 Overcast SCT009 OVC017 76.5 73.4 90% 77 30.08 0.0
23 09:55 S 6 10.00 Overcast BKN009 BKN013 OVC037 76.3 73.6 91% 76 30.07 0.0
23 09:35 S 6 10.00 Overcast BKN009 BKN013 OVC037 76.1 73.8 93% 76 30.07 0.0
23 09:15 S 5 10.00 Overcast BKN009 OVC037 76.1 73.6 92% 76 30.07 0.0
23 08:55 S 5 10.00 Overcast SCT009 BKN037 OVC049 76.1 73.6 92% 76 30.06 0.0
23 08:35 S 6 10.00 Mostly Cloudy SCT037 BKN049 BKN090 75.2 73.2 94% 74 30.06 0.0
23 08:15 S 5 10.00 Mostly Cloudy BKN080 74.7 72.7 94% 30.05 0.0
23 07:55 S 3 10.00 Overcast SCT037 OVC080 73.9 72.9 96% 30.05 0.0
23 07:35 S 5 10.00 Overcast BKN037 OVC065 73.6 72.3 96% 30.04 0.0
23 07:15 SW 3 10.00 Mostly Cloudy SCT037 BKN065 BKN080 73 72.3 98% 30.04 0.0
23 06:55 Calm 10.00 Mostly Cloudy SCT065 BKN080 72.1 71.8 73.4 70.5 99% 30.03 0.0
23 06:35 Calm 10.00 Overcast SCT048 OVC080 72.3 71.6 98% 30.03 0.0
23 06:15 S 5 10.00 Overcast BKN040 BKN048 OVC080 72.7 71.4 96% 30.03 0.0
23 05:55 SW 6 10.00 Overcast OVC040 72.9 71.4 95% 30.04 0.0
23 05:35 Calm 10.00 Overcast SCT039 BKN045 OVC070 72.3 71.4 97% 30.03 0.0
23 05:15 Calm 10.00 Overcast OVC070 71.4 70.9 98% 30.02 0.0
23 04:55 Calm 10.00 Mostly Cloudy BKN070 70.7 70.5 99% 30.02 0.0
23 04:35 Calm 10.00 Mostly Cloudy BKN070 70.7 70.7 100% 30.01 0.0
23 04:15 Calm 10.00 Fair CLR 71.1 70.7 99% 30.01 0.0
23 03:55 S 5 10.00 Fair CLR 71.1 70.7 99% 30.02 0.0
23 03:35 Calm 10.00 Fair CLR 71.1 70.7 99% 30.01 0.0
23 03:15 Calm 10.00 Fair CLR 72.3 70.7 95% 30 0.0
23 02:55 SW 3 10.00 Fair CLR 72.3 70.7 95% 30 0.0
23 02:35 S 5 10.00 Partly Cloudy SCT065 72.3 71.1 96% 30 0.0
23 02:15 S 3 10.00 Fair CLR 71.8 71.6 99% 30 0.0
23 01:55 S 3 10.00 Partly Cloudy SCT065 72 71.8 99% 30 0.0
23 01:35 S 3 10.00 Partly Cloudy SCT065 72.7 70.3 92% 30.01 0.0
23 01:15 Calm 10.00 Fair CLR 72.7 70.9 94% 30.02 0.0
23 00:55 S 5 10.00 Fair CLR 73.4 70.5 77 72.1 91% 30.02 0.0
23 00:35 SW 5 10.00 Fair CLR 73.4 70.5 91% 30.02 0.0
23 00:15 Calm 10.00 Fair CLR 72.7 72 98% 30.02 0.0
22 23:55 Calm 10.00 Fair CLR 72.5 72.1 99% 30.02 0.0
22 23:35 S 3 10.00 Fair CLR 72.3 72.1 99% 30.02 0.0
22 23:15 Calm 10.00 Partly Cloudy SCT110 72.5 72.1 99% 30.01 0.0
22 22:55 Calm 10.00 Fair CLR 72.5 72.3 99% 30.02 0.0
22 22:35 SE 3 10.00 Fair CLR 72.7 72.1 98% 30.01 0.0
22 22:15 S 3 10.00 Fair CLR 73.2 72 96% 30 0.0
22 21:55 SW 5 10.00 Fair CLR 74.3 71.8 92% 30 0.0
22 21:35 W 6 10.00 Fair CLR 74.3 71.4 91% 30 0.0
22 21:15 W 5 10.00 Fair CLR 74.1 71.1 90% 29.99 0.0
22 20:55 W 7 10.00 Fair CLR 74.8 70.7 87% 29.99 0.0
22 20:35 W 5 10.00 Fair CLR 75 70.5 86% 75 29.99 0.0
22 20:15 W 6 10.00 Fair CLR 74.8 69.3 83% 29.98 0.0
22 19:55 S 6 10.00 Fair CLR 74.7 69.1 83% 29.97 0.0
22 19:35 S 10 10.00 Fair CLR 75.2 70 84% 75 29.96 0.0
22 19:15 S 12 10.00 Fair CLR 75.9 69.8 81% 77 29.97 0.0
22 18:55 S 12 10.00 Fair CLR 76.8 70.7 84.7 74.8 81% 78 29.98 0.0
22 18:35 S 15 10.00 Partly Cloudy SCT022 SCT036 SCT095 76.6 70.7 82% 78 29.98 0.0
22 18:15 S 12 10.00 Overcast BKN019 BKN032 OVC085 77.2 71.8 84% 79 29.98 0.0
22 17:55 S 6 10.00 Partly Cloudy SCT032 SCT060 SCT090 80.2 73.9 81% 85 29.97 0.0
22 17:35 SE 3 10.00 Partly Cloudy SCT065 81 75.7 84% 87 29.97 0.0
22 17:15 S 5 10.00 Mostly Cloudy BKN065 80.1 75.4 86% 85 29.97 0.0
22 16:55 Calm 10.00 Fair CLR 80.2 75.7 86% 86 29.96 0.0
22 16:35 E 5 10.00 Mostly Cloudy SCT008 SCT043 BKN070 80.1 74.7 84% 85 29.96 0.0
22 16:15 E 7 10.00 Mostly Cloudy BKN039 BKN050 BKN070 78.3 73.2 85% 81 29.97 0.0
22 15:55 SE 10 10.00 Mostly Cloudy BKN039 BKN050 77.2 72.7 86% 79 29.96 0.0
22 15:35 SE 10 10.00 Overcast SCT033 BKN040 OVC050 76.1 71.6 86% 77 29.97 0.0
22 15:15 SE 8 10.00 Overcast SCT033 BKN039 OVC060 75.6 70 83% 76 29.97 0.0
22 14:55 SE 12 10.00 Overcast BKN035 OVC041 76.1 71.4 86% 77 29.97 0.0
22 14:35 E 8 10.00 Overcast BKN029 BKN035 OVC080 82.6 73.6 74% 89 29.97 0.0
22 14:15 NE 6 10.00 Overcast BKN029 BKN038 OVC050 83.5 73 71% 90 29.98 0.0
22 13:55 SE 5 10.00 Mostly Cloudy BKN029 BKN038 BKN110 84.4 72.9 68% 91 29.97 0.0
22 13:35 Calm 10.00 Mostly Cloudy BKN029 BKN095 83.8 73.4 71% 90 29.98 0.0
22 13:15 Calm 10.00 Partly Cloudy SCT025 SCT032 83.5 73.6 72% 90 29.99 0.0
22 12:55 Calm 10.00 Partly Cloudy SCT023 83.3 73.2 84 72 72% 89 29.99 0.0 0.01
22 12:35 Calm 10.00 Fair CLR 82.2 73.4 75% 88 30.01 0.0
22 12:15 Calm 10.00 Partly Cloudy SCT019 81 73.9 79% 86 30.01 0.0
22 11:55 Calm 10.00 Partly Cloudy SCT015 80.4 73.6 80% 85 30.02 0.0
22 11:35 Calm 10.00 Partly Cloudy SCT015 80.1 74.7 84% 85 30.02 0.0
22 11:15 Calm 10.00 Fair CLR 79.5 74.8 86% 84 30.02 0.0
22 10:55 Calm 10.00 Partly Cloudy SCT010 78.8 74.1 86% 82 30.02 0.0
22 10:35 Calm 10.00 Mostly Cloudy BKN010 77.7 74.5 90% 80 30.03 0.0
22 10:15 Calm 10.00 Mostly Cloudy BKN008 76.5 73.8 91% 77 30.02 0.0
22 09:55 Calm 10.00 Overcast BKN006 OVC012 75.4 73.8 95% 74 30.03 0.0 0.01
22 09:35 Calm 10.00 Partly Cloudy SCT006 SCT014 75 73.9 96% 73 30.03 0.0
22 09:15 Calm 10.00 Fair CLR 73.8 73.4 99% 30.02 0.0
22 08:55 SE 6 7.00 Partly Cloudy SCT004 SCT035 SCT095 73.4 73.4 100% 30.02 0.0 0.01
22 08:35 E 3 2.00 Fog/Mist SCT050 BKN075 OVC085 73.6 73.4 99% 30.02 0.0 0.01
Date Time (cdt) Wind (mph) Vis. (mi.) Weather Sky Cond. Air Dwpt Max. Min. Relative Humidity Wind Chill (°F) Heat Index (°F) altimeter (in) sea level (mb) 1 hr 3 hr 6 hr
6 hour
Temperature (ºF) Pressure Precipitation (in)